www.pogodaiklimat.ru

Погода и климат >> Архив погоды >> Россия >> Чукотка >> Билибино


ПОГОДА в Билибино

  • Прогноз погоды в Билибино
  • Монитор погоды в Билибино
  • Климат города

АРХИВ ПОГОДЫ в Билибино

Время (UTC), дата Ветер
(напр.,м/с)
 
Видим.   Явления Облачность Т
(С)
Тd
(С)
f
(%)
Тe
(С)
Тes
(С)
Комфортность P
(гПа)
Po
(гПа)
Тmin
(С)
Tmax
(С)
R
(мм)
R24
(мм)
S
(см)
00 18.05 С 5
{8}
50 км 6/3 600 м
[Cu hum Ci fib]
+12.0 -0.9 41 +10 +13 1005.6 972.7
03 18.05 С 5
{8}
50 км 6/3 600 м
[Cu hum Ci fib]
+12.0 -0.9 41 +10 +13 1005.6 972.7
06 18.05 СВ 3
{8}
50 км 9/3 600 м
[Cu hum Ci]
+13.6 -1.9 34 +13 +15 1004.4 971.6
09 18.05 СВ 3
{6}
50 км 8/0
[Ac trans Ci fib]
+8.3 -3.6 43 +6 +7 1005.4 972.0 +14.3
12 18.05 СВ 1
{5}
50 км 4/1 600 м
[Cu hum Ci fib]
+4.0 -2.5 63 +3 +3 1006.0 972.1
15 18.05 СВ 2
{5}
50 км 3/0
[Ac trans Ci fib]
+2.7 -3.5 64 0 0 1006.4 972.2
18 18.05 С 2
{5}
50 км 3/0
[Ac trans Ci fib]
+2.0 -2.7 71 -1 0 1006.7 972.5
21 18.05 ЮВ 2
{6}
50 км 1/0
[Ci fib]
+7.8 -3.6 44 +6 +12 1005.7 972.2 +0.5
00 19.05 ЮВ 2
{7}
50 км 1/0
[Ci fib]
+10.3 -3.0 39 +9 +19 опасность
простуды
1004.3 971.1
03 19.05 ЮВ 3
{8}
50 км 1/1 1000 м
[Cu hum]
+11.5 -3.0 36 +10 +17 1003.4 970.4
06 19.05 Ю 3
{7}
50 км ясно +11.4 -2.2 39 +10 +13 1003.0 970.0
09 19.05 В 3
{7}
50 км ясно +8.2 -0.9 53 +6 +6 1004.1 970.7 +12.7
12 19.05 СВ 1
{6}
50 км ясно +1.7 -1.7 78 0 0 1005.7 971.4
15 19.05 З 1
{4}
50 км ясно -0.9 -2.5 89 -3 -3 1006.1 971.6
18 19.05 СВ 4
{7}
50 км ясно +3.7 -1.6 68 -1 0 1005.5 971.5
21 19.05 СВ 3
{7}
50 км ясно +9.0 0.0 53 +7 +12 1004.3 971.0 -1.8
00 20.05 Ю 4
{7}
50 км 8/8 600 м
[Cu med, cong]
+12.0 -0.5 42 +10 +12 1003.5 970.6
03 20.05 Ю 3
{8}
50 км 8/8 600 м
[Cb cap]
+10.8 -0.7 45 +9 +11 1003.5 970.4
06 20.05 ЮВ 4
{7}
50 км 3/3 600 м
[Cu hum]
+11.2 -0.7 44 +9 +11 1002.9 969.9
09 20.05 ЮВ 1
{7}
50 км 8/8 600 м
[Cu Sc]
+8.5 0.0 55 +8 +8 1004.1 970.8 +12.2
12 20.05 СВ 1
{6}
50 км 9/9 600 м
[Sc]
+5.4 -0.7 65 +5 +5 1005.1 971.3
15 20.05 ЮВ 3
{7}
50 км 3/3 600 м
[Sc]
+4.0 -0.9 70 +1 +1 1004.9 971.0
18 20.05 С 3
{7}
50 км ясно +5.7 -1.3 61 +3 +4 1004.3 970.5
21 20.05 В 4
{7}
50 км 6/6 600 м
[Cu hum]
+8.6 -1.7 48 +6 +8 1003.4 970.1 +2.8
00 21.05 В 5
{9}
50 км 6/6 600 м
[Cu med, cong]
+9.8 -2.2 43 +7 +9 1001.9 968.7
03 21.05 ЮВ 5
{10}
50 км 3/3 600 м
[Cu med, cong]
+9.1 -3.8 40 +6 +10 1001.3 968.1
06 21.05 ЮВ 3
{8}
50 км 1/1 600 м
[Cu hum]
+8.7 -4.1 40 +7 +10 1001.4 968.1
09 21.05 В 4
{7}
50 км 3/3 1000 м
[Sc]
+6.9 -4.2 45 +4 +4 1002.1 968.5 +10.1
12 21.05 В 3
{7}
50 км 3/3 1000 м
[Sc]
+2.7 -5.4 55 -1 -1 1003.9 969.8
15 21.05 В 3
{6}
50 км 3/3 600 м
[Sc]
+2.6 -5.6 55 -1 -1 1004.0 969.9
18 21.05 СВ 5
{8}
50 км ясно +3.3 -4.6 56 -1 -1 1004.7 970.7
21 21.05 СВ 5
{8}
50 км ясно +6.3 -5.2 44 +3 +6 1004.7 971.0 +1.1
00 22.05 В 5
{10}
50 км 4/4 600 м
[Cu hum]
+8.4 -5.0 38 +5 +9 1004.5 971.1
03 22.05 В 4
{10}
50 км 6/6 600 м
[Cu hum]
+8.2 -5.7 37 +6 +8 1004.5 971.1
06 22.05 СВ 5
{9}
50 км 6/6 600 м
[Cu hum]
+9.1 -4.7 37 +6 +7 1004.6 971.3
09 22.05 СВ 5
{10}
50 км 3/3 600 м
[Cu hum]
+6.4 -3.1 51 +3 +3 1006.7 972.9 +9.6
12 22.05 СВ 4
{8}
50 км ясно +1.7 -3.0 71 -3 -3 1008.4 974.0
15 22.05 СВ 4
{8}
50 км ясно +0.5 -3.5 75 -5 -5 1008.9 974.4
18 22.05 СВ 6
{9}
50 км 1/1 600 м
[Cu hum]
+1.4 -3.8 68 -4 -4 1009.2 974.8
21 22.05 СВ 6
{9}
50 км ясно +3.0 -5.0 56 -2 0 1009.7 975.4 +0.4
00 23.05 СВ 7-10
{10}
50 км 3/0
[Ci fib]
+4.8 -6.8 43 0 +3 1009.0 975.0
03 23.05 СВ 7-11
{12}
50 км 3/0
[Ci fib]
+5.5 -9.4 33 +1 +4 1008.9 975.0
06 23.05 СВ 7-10
{12}
50 км ясно +4.2 -8.3 40 -1 0 1009.4 975.4
09 23.05 СВ 6-10
{12}
50 км ясно +1.4 -8.2 49 -4 -4 1011.0 976.5 +5.8
12 23.05 СВ 5
{10}
50 км 1/0
[Ac trans]
-1.8 -7.1 67 -8 -8 1012.5 977.6
15 23.05 СВ 4
{10}
50 км 3/1 600 м
[Sc Ci fib]
-3.0 -8.4 66 -9 -9 1012.4 978.0
18 23.05 СВ 5
{11}
50 км 1/1 600 м
[Cu hum]
-2.0 -8.2 63 -8 -7 1012.7 978.2
21 23.05 СВ 5
{11}
50 км 1/1 600 м
[Cu hum]
+0.7 -8.2 51 -5 -2 1013.0 978.4 -3.3
00 24.05 СВ 7-10
{10}
50 км 1/1 600 м
[Cu hum]
+2.5 -7.4 48 -3 -1 1012.2 977.8
03 24.05 СВ 7-11
{12}
50 км 3/0
[Ci fib]
+3.9 -7.0 45 -1 +1 1011.5 977.3
06 24.05 СВ 7-10
{11}
50 км 1/0
[Ci ing]
+3.3 -7.0 47 -2 -1 1011.0 976.8
09 24.05 СВ 5
{10}
50 км 3/1 600 м
[Cu hum Ci ing]
+0.3 -6.7 59 -5 -5 1012.0 977.4 +4.3
12 24.05 В 2
{9}
50 км 3/0
[Ci ing]
-2.3 -7.0 70 -6 -6 1012.5 977.5
15 24.05 СВ 3
{6}
50 км ясно -3.5 -7.1 76 -9 -9 1012.0 976.9
18 24.05 СВ 3
{6}
50 км ясно -1.8 -7.9 63 -6 -5 1010.9 976.0

 

Местоположение метеостанции Билибино (Чукотка, Россия): широта 68.05 долгота 166.40 высота над уровнем моря 280 м.

В архиве по умолчанию представлена погода в Билибино за последнюю неделю. Архивные данные за месяц целиком и за предыдущие месяцы, начиная с января 2011 года, Вы можете получить, выбрав интересующий диапазон дат из раскрывающегося списка и нажав кнопку "Ввод!".

Внимание! Время в таблицах - всемирное. Для получения местного времени необходимо прибавить поправку, которая в Билибино равна 12 ч.

Смотрите также архив погоды в соседних городах и на ближайших метеорологических станциях:

Погода на Островном (Чукотка, Россия) (96 км)
Погода в Илирнее (Чукотка, Россия) (109 км)
Погода в Раучуе (Чукотка, Россия) (161 км)
Погода в Баимке (Чукотка, Россия) (194 км)
Погода в Чауне (Чукотка, Россия) (198 км)
Погода в Анюйске (Чукотка, Россия) (205 км)
Погода на Айон Острове (Чукотка, Россия) (217 км)
Погода в Константиновской (Чукотка, Россия) (220 км)
Погода в Черском (Якутия, Россия) (222 км)
Погода в Певеке (Чукотка, Россия) (238 км)

Пояснения к столбцам:

Ветер - указаны скорость ветра в м/с - средняя за 10 мин, порывы в срок и между сроками (в фигурных скобках) и направление, откуда дует ветер: С - северный, СВ - северо-восточный, В - восточный, ЮВ - юго-восточный, Ю - южный, ЮЗ - юго-западный, З - западный, СЗ - северо-западный.
Видимость - горизонтальная дальность видимости в метрах или километрах. При видимости от 1 до 10 км при отсутствии осадков обычно наблюдается дымка, при ухудшении видимости до 1 км и менее - туман. В сухую погоду видимость может ухудшаться дымом, пылью или мглою.
Явления - указаны атмосферные явления, наблюдавшиеся в срок или в последний час перед сроком; фигурными скобками обозначены явления, наблюдавшиеся между сроками (за 1-3 часа до срока); квадратными скобками обозначены град или гололедные отложения с указанием их диаметра в мм.
Облачность - указаны через наклонную черту общая и нижняя облачность в баллах и высота нижней границы облаков в метрах; квадратными скобками обозначены формы облаков: Ci - перистые, Cs - перисто-слоистые, Cc - перисто-кучевые, Ac - высококучевые, As - высокослоистые, Sc - слоисто-кучевые, Ns - слоисто-дождевые, Cu - кучевые, Cb - кучево-дождевые. Подробнее классификацию облаков см. в Атласе облаков (PDF).
T - Температура воздуха - температура, измеренная на высоте 2 м над землей.
Td - Температура точки росы - температура, при понижении до которой содержащийся в воздухе водяной пар достигнет насыщения.
f - Относительная влажность воздуха - влажноcть воздуха, измеренная на высоте 2 м над землей.
Te - Эффективная температура - температура, которую ощущает одетый по сезону человек в тени. Характеристика душности погоды. При расчете учитывается влияние влажности воздуха и скорости ветра на теплоощущения человека.
Tes - Эффективная температура на солнце - температура, которую ощущает человек, с поправкой на солнечный нагрев. Характеристика знойности погоды. Зависит от высоты солнца над горизонтом, облачности и скорости ветра. Ночью, в пасмурную погоду, а также при ветре 12 м/с и более поправка равна нулю.
P - Атмосферное давление - приведенное к уровню моря атмосферное давление.
Po - Атмосферное давление - измеренное на уровне метеостанции атмосферное давление.
Tmin - Минимальная температура - минимум температуры воздуха на высоте 2 м над землей.
Tmax - Максимальная температура - максимум температуры воздуха на высоте 2 м над землей.
R - Количество осадков - Количество выпавших осадков за период времени, мм. При наведении курсора мыши на число - период времени, за который выпало указанное количество осадков.
R24 - Количество осадков - Количество выпавших осадков за 24 часа, мм.
S - Снежный покров - Высота снежного покрова, см. При наведении курсора мыши на число - состояние снежного покрова и степень покрытия местности в баллах.